Content
SEND FEEDBACK

Daily
Averages
Monthly
Summary
United States of America

KEITHSBURG, ILLINOIS


Home > North America > United States > Illinois
Elevation: 540 feet     Latitude: 41 06N     Longitude: 090 57W

WEATHER
 
SELECT A DAY
Number of Records: 258,437;   Date Range: 4/23/95 - 7/7/14
 
SHARE

PRINT THIS DATA

[ ← Previous Day ]
WEATHER ALMANAC - FEBRUARY 13, 2013
[ Next Day → ]
[ °C ]   °F
Weather ElementAverageHighLow
Temperature35.8 °F46.4 °F (3:55 pm)28.4 °F (1:55 am)
Dewpoint25.5 °F28.4 °F (1:15 pm)21.2 °F (4:15 am)
Humidity67.1 %80 % (1:35 am)46 % (3:55 pm)
Barometer29.79 in29.89 in (12:35 am)29.69 in (11:35 pm)
Wind Speed5.6 mph12.7 mph (12:15 pm)
Wind Gust16.1 mph (1:35 pm)
Weather ElementAverage
Visibility9.9 mi
Wind DirectionSSW (195.8 °)

Weather ElementTotal
Precipitation---
Heating Degree Days27.6 (Base 65)
Averaged from 71 records on February 13, 2013
WEATHER CONDITIONS BREAKOUT
WIND DIRECTION BREAKOUT
WEATHER BY HOUR - FEBRUARY 13, 2013
[ °C ]   °F
Local TimeTemperatureDewpointHumidityBarometerVisibilityWind DirectionWind SpeedGust SpeedPrecipitationEventsConditions
12:35 AM32.0 °F24.8 °F75 %29.89 in10.0 miSW (220°)6.9 mphClear
12:55 AM32.0 °F24.8 °F75 %29.88 in10.0 miSW (230°)9.2 mphClear
1:15 AM32.0 °F24.8 °F75 %29.87 in10.0 miSW (230°)9.2 mphClear
1:35 AM30.2 °F24.8 °F80 %29.87 in10.0 miSW (230°)4.6 mphClear
1:55 AM28.4 °F23.0 °F80 %29.86 in10.0 miCalmClear
2:15 AM30.2 °F23.0 °F75 %29.86 in10.0 miCalmClear
2:35 AM30.2 °F23.0 °F75 %29.85 in10.0 miCalmClear
2:55 AM30.2 °F23.0 °F75 %29.84 in10.0 miSouth (170°)3.5 mphClear
3:15 AM30.2 °F23.0 °F75 %29.83 in10.0 miCalmClear
3:35 AM30.2 °F23.0 °F75 %29.83 in10.0 miWSW (250°)5.8 mphClear
3:55 AM30.2 °F23.0 °F75 %29.82 in10.0 miWSW (240°)6.9 mphClear
4:15 AM30.2 °F21.2 °F69 %29.82 in10.0 miWSW (240°)9.2 mphClear
4:35 AM30.2 °F21.2 °F69 %29.82 in10.0 miWSW (240°)8.1 mphClear
4:55 AM28.4 °F21.2 °F74 %29.81 in10.0 miWSW (240°)9.2 mphClear
5:15 AM28.4 °F21.2 °F74 %29.81 in10.0 miWSW (250°)8.1 mphClear
5:35 AM28.4 °F21.2 °F74 %29.80 in10.0 miWSW (240°)5.8 mphClear
5:55 AM28.4 °F21.2 °F74 %29.80 in10.0 miCalmClear
6:15 AM28.4 °F21.2 °F74 %29.79 in10.0 miWSW (240°)4.6 mphClear
6:35 AM28.4 °F21.2 °F74 %29.80 in10.0 miWest (260°)3.5 mphClear
6:55 AM28.4 °F21.2 °F74 %29.80 in10.0 miCalmClear
7:15 AM28.4 °F21.2 °F74 %29.80 in10.0 miCalmClear
7:35 AM28.4 °F21.2 °F74 %29.80 in7.0 miCalmClear
7:55 AM28.4 °F23.0 °F80 %29.81 in7.0 miWest (260°)4.6 mphClear
8:15 AM30.2 °F24.8 °F80 %29.81 in7.0 miWest (280°)8.1 mphClear
8:35 AM30.2 °F24.8 °F80 %29.81 in10.0 miWest (280°)6.9 mphClear
8:55 AM32.0 °F24.8 °F75 %29.81 in10.0 miWest (270°)4.6 mphClear
9:15 AM33.8 °F26.6 °F75 %29.81 in10.0 miWest (270°)3.5 mphClear
9:35 AM35.6 °F26.6 °F70 %29.81 in10.0 miWNW (290°)4.6 mphClear
9:55 AM35.6 °F26.6 °F70 %29.81 in10.0 miWNW (290°)3.5 mphClear
10:15 AM37.4 °F26.6 °F65 %29.81 in10.0 miWest (280°)5.8 mphClear
10:35 AM37.4 °F24.8 °F60 %29.81 in10.0 miWNW (290°)8.1 mphClear
10:55 AM37.4 °F24.8 °F60 %29.81 in10.0 miWest (260°)3.5 mphClear
11:15 AM39.2 °F24.8 °F56 %29.81 in10.0 miWest (270°)4.6 mphClear
11:35 AM39.2 °F24.8 °F56 %29.80 in10.0 miWest (270°)5.8 mphClear
11:55 AM39.2 °F26.6 °F61 %29.80 in10.0 miWest (260°)8.1 mphClear
12:15 PM41.0 °F26.6 °F57 %29.79 in10.0 miWSW (240°)12.7 mphClear
12:35 PM41.0 °F26.6 °F57 %29.79 in10.0 miWest (260°)10.4 mphClear
12:55 PM41.0 °F26.6 °F57 %29.78 in10.0 miWSW (250°)10.4 mphClear
1:15 PM41.0 °F28.4 °F61 %29.78 in10.0 miWest (270°)10.4 mphClear
1:35 PM42.8 °F28.4 °F57 %29.77 in10.0 miWest (270°)9.2 mph16.1 mphClear
1:55 PM42.8 °F28.4 °F57 %29.77 in10.0 miWest (270°)11.5 mphClear
2:15 PM42.8 °F28.4 °F57 %29.77 in10.0 miWest (260°)8.1 mphClear
2:35 PM44.6 °F28.4 °F53 %29.77 in10.0 miWest (260°)8.1 mphClear
2:55 PM44.6 °F28.4 °F53 %29.76 in10.0 miWSW (240°)8.1 mphClear
3:15 PM44.6 °F28.4 °F53 %29.76 in10.0 miWest (260°)9.2 mphClear
3:35 PM44.6 °F26.6 °F49 %29.76 in10.0 miWest (270°)8.1 mphClear
3:55 PM46.4 °F26.6 °F46 %29.77 in10.0 miWSW (250°)9.2 mphClear
4:15 PM44.6 °F26.6 °F49 %29.76 in10.0 miWest (260°)6.9 mphClear
4:35 PM44.6 °F26.6 °F49 %29.76 in10.0 miWest (260°)5.8 mphClear
4:55 PM44.6 °F26.6 °F49 %29.76 in10.0 miWSW (250°)6.9 mphClear
5:15 PM42.8 °F28.4 °F57 %29.77 in10.0 miWSW (250°)4.6 mphMostly Cloudy
5:35 PM42.8 °F28.4 °F57 %29.76 in10.0 miSSW (210°)3.5 mphMostly Cloudy
5:55 PM39.2 °F28.4 °F65 %29.76 in10.0 miCalmMostly Cloudy
6:15 PM39.2 °F28.4 °F65 %29.76 in10.0 miCalmOvercast
6:35 PM39.2 °F28.4 °F65 %29.76 in10.0 miSouth (170°)3.5 mphMostly Cloudy
6:55 PM37.4 °F28.4 °F70 %29.76 in10.0 miSSE (160°)3.5 mphScattered Clouds
7:15 PM35.6 °F26.6 °F70 %29.76 in10.0 miSouth (180°)4.6 mphClear
7:35 PM33.8 °F26.6 °F75 %29.76 in10.0 miSouth (170°)3.5 mphClear
7:55 PM33.8 °F26.6 °F75 %29.75 in10.0 miSouth (170°)3.5 mphClear
8:15 PM33.8 °F26.6 °F75 %29.75 in10.0 miSouth (170°)3.5 mphScattered Clouds
8:35 PM33.8 °F26.6 °F75 %29.74 in10.0 miCalmScattered Clouds
8:55 PM33.8 °F26.6 °F75 %29.74 in10.0 miSSE (160°)3.5 mphMostly Cloudy
9:15 PM35.6 °F26.6 °F70 %29.73 in10.0 miCalmMostly Cloudy
9:35 PM35.6 °F26.6 °F70 %29.73 in10.0 miSSE (160°)4.6 mphMostly Cloudy
9:55 PM37.4 °F26.6 °F65 %29.73 in10.0 miSSE (150°)3.5 mphOvercast
10:15 PM35.6 °F26.6 °F70 %29.72 in10.0 miSSW (200°)5.8 mphOvercast
10:35 PM37.4 °F28.4 °F70 %29.71 in10.0 miSSW (200°)8.1 mphOvercast
10:55 PM37.4 °F28.4 °F70 %29.71 in10.0 miSSW (210°)8.1 mphOvercast
11:15 PM39.2 °F28.4 °F65 %29.70 in10.0 miSSW (210°)10.4 mphOvercast
11:35 PM39.2 °F28.4 °F65 %29.69 in10.0 miSSW (200°)10.4 mphOvercast
11:55 PM39.2 °F28.4 °F65 %29.69 in10.0 miSSW (210°)10.4 mphOvercast
Hourly data recorded from KMUT, located miles away from Keithsburg, Illinois







STORIES FROM OUR PARTNERS